[[{"header":{"parameterUnit":"m.s-1","parameterCategory":2,"la1":30.2992,"la2":30.254,"lo1":-89.0895,"lo2":-89.0443,"dy":0.0025,"dx":0.0025,"nx":19,"ny":19,"refTime":"2026-03-26T03:00:00:Z","depth":"0","parameterNumber":2,"parameterNumberName":"U-component_of_CURRENTS"},"data":[0,0,0,-0.2295,-0.2297,-0.234,-0.234,-0.2317,-0.2317,0,0,0,0,0,0,0,0,0,0,0,-0.2268,-0.2268,-0.2295,-0.2297,-0.234,-0.234,-0.2317,-0.2317,0,0,0,0,0,0,0,0,0,0,0,-0.2268,-0.2268,-0.2269,-0.2297,-0.234,-0.234,-0.2317,-0.2301,0,0,0,0,0,0,0,0,0,0,-0.2267,-0.2249,-0.2268,-0.2269,-0.2297,-0.234,-0.234,-0.2301,-0.2302,-0.2279,0,-0.229,0,-0.2313,-0.2315,-0.2315,0,0,0,-0.2283,-0.2249,-0.2274,-0.2269,-0.2298,-0.234,-0.2317,-0.2302,-0.2303,-0.228,-0.229,-0.229,-0.2312,-0.2315,-0.2314,-0.2309,-0.2309,0,0,-0.2281,-0.226,-0.2273,-0.2275,-0.2312,-0.2315,-0.2318,-0.2303,-0.2296,-0.229,-0.229,-0.2312,-0.2314,-0.2314,-0.2309,-0.2309,0,0,0,-0.2283,-0.2258,-0.2285,-0.2275,-0.2294,-0.2317,-0.232,-0.2296,-0.2309,-0.229,-0.2312,-0.2314,-0.2314,-0.2309,-0.2309,-0.2312,0,0,0,-0.2281,-0.2262,-0.2284,-0.227,-0.2295,-0.2305,-0.2313,-0.2309,-0.2309,-0.2312,-0.2314,-0.2314,-0.2309,-0.2309,-0.2312,-0.229,0,0,0,-0.2266,-0.226,-0.2269,-0.2269,-0.2298,-0.2307,-0.2318,-0.231,-0.2323,-0.2315,-0.2313,-0.2309,-0.2309,-0.2311,-0.229,-0.2244,0,0,0,-0.2237,-0.2278,-0.2268,-0.2318,-0.2297,-0.2353,-0.2318,-0.2343,-0.2342,-0.2314,-0.2309,-0.2309,-0.2311,-0.229,-0.2245,-0.1998,-0.1974,0,0,-0.2283,-0.2282,-0.2317,-0.2311,-0.2371,-0.2346,-0.2377,-0.2356,-0.2336,-0.2305,-0.2306,-0.2312,-0.229,-0.2244,-0.2023,-0.1997,0,0,0,-0.2329,-0.2343,-0.2364,-0.2389,-0.242,-0.2396,-0.2397,-0.2374,-0.234,-0.234,-0.2319,-0.2305,-0.2276,-0.213,-0.2111,-0.2057,-0.2311,-0.2311,-0.2311,-0.2326,-0.2362,-0.2394,-0.2424,-0.2442,-0.2433,-0.2404,-0.2363,-0.2368,-0.2349,-0.2315,-0.2289,-0.2135,-0.2117,-0.2067,-0.2334,-0.2334,-0.2334,-0.2334,-0.2352,-0.235,-0.2378,-0.2421,-0.2406,-0.2413,-0.2379,-0.2363,-0.2306,-0.2321,-0.2293,-0.2149,-0.2095,-0.205,-0.2335,-0.2335,-0.2335,-0.2335,-0.2335,-0.2316,-0.231,-0.2347,-0.2359,-0.2353,-0.2361,-0.2296,-0.23,-0.2284,-0.2259,-0.2076,-0.2073,-0.2022,-0.2247,-0.2247,-0.2247,-0.2247,-0.2246,-0.2246,-0.2226,-0.2264,-0.224,-0.2279,-0.2257,-0.2244,-0.2237,-0.2191,-0.2086,-0.2035,-0.2033,-0.1985,-0.2261,-0.2252,-0.2242,-0.2243,-0.2243,-0.2244,-0.2244,-0.2111,-0.2139,-0.2092,-0.2072,-0.2038,-0.1888,-0.1984,-0.1808,-0.1811,-0.1692,-0.1671,-0.1897,-0.1858,-0.187,-0.1851,-0.1738,-0.1738,-0.1738,-0.1738,-0.1992,-0.202,-0.1895,-0.1821,-0.1748,-0.1698,-0.1362,-0.1287,-0.1307,-0.1309,-0.1441,-0.1414,-0.1436,-0.1376,-0.1399,-0.1373,-0.1141,-0.1141,-0.114,-0.1849,-0.1848,-0.17,-0.1678,-0.1579,-0.1408,-0.0944,-0.0675,-0.09,-0.1125,-0.1422,-0.1447,-0.1428,-0.1468,-0.1392,-0.143,-0.1394,0,0]},{"header":{"parameterUnit":"m.s-1","parameterCategory":2,"la1":30.2992,"la2":30.254,"lo1":-89.0895,"lo2":-89.0443,"dy":0.0025,"dx":0.0025,"nx":19,"ny":19,"refTime":"2026-03-26T03:00:00:Z","depth":"0","parameterNumber":3,"parameterNumberName":"V-component_of_CURRENTS"},"data":[0,0,0,0.0156,0.0158,0.0289,0.029,0.0464,0.0465,0,0,0,0,0,0,0,0,0,0,0,0.0105,0.0106,0.0156,0.0158,0.0289,0.029,0.0464,0.0465,0,0,0,0,0,0,0,0,0,0,0,0.0105,0.0106,0.0106,0.0159,0.0289,0.029,0.0464,0.0368,0,0,0,0,0,0,0,0,0,0,0.0243,0.0176,0.0106,0.0106,0.0159,0.0289,0.029,0.0364,0.0374,0.04,0,0.0403,0,0.0431,0.0475,0.0476,0,0,0,0.018,0.0167,0.021,0.0106,0.016,0.0288,0.0236,0.037,0.0382,0.0414,0.0405,0.0412,0.0434,0.0476,0.0477,0.0509,0.0508,0,0,0.0173,0.0129,0.0202,0.0217,0.0172,0.0232,0.024,0.0377,0.0375,0.0406,0.0417,0.0437,0.0477,0.0478,0.051,0.0509,0,0,0,0.0137,0.0123,0.0164,0.0209,0.0229,0.0235,0.0244,0.0369,0.0384,0.0419,0.0439,0.0478,0.048,0.051,0.0509,0.0347,0,0,0,0.0134,0.0102,0.016,0.0136,0.0225,0.0297,0.0233,0.0375,0.0391,0.0438,0.0478,0.0481,0.0511,0.051,0.0354,0.0275,0,0,0,0.0103,0.0099,0.0109,0.0133,0.0181,0.0295,0.0319,0.0379,0.0403,0.0476,0.0482,0.0512,0.051,0.0359,0.0285,0.029,0,0,0,0.0064,0.003,0.0107,0.0076,0.018,0.0215,0.0319,0.0364,0.0416,0.0479,0.0511,0.0509,0.0361,0.0291,0.0295,0.0443,0.0432,0,0,-0.0007,0.0021,0.0002,0.0073,0.0054,0.02,0.0185,0.0303,0.0398,0.0473,0.0474,0.0352,0.0285,0.0291,0.034,0.0332,0,0,0,-0.0039,-0.0063,-0.0051,-0.0043,0.0027,0.0067,0.0193,0.0242,0.0308,0.0418,0.0361,0.0324,0.0334,0.0433,0.0426,0.0617,0.0501,0.0501,0.0501,-0.0204,-0.0165,-0.0213,-0.0166,-0.0132,-0.0022,0.0012,0.0102,0.0215,0.0208,0.0199,0.0098,0.02,0.0198,0.0389,0.0213,0.0212,0.0212,0.0212,-0.0353,-0.0389,-0.0343,-0.0369,-0.0298,-0.028,-0.0167,-0.0093,-0.0032,0.0054,0.0073,0.0264,0.0181,0.0389,0.0201,0.0203,0.0204,0.0205,0.0206,-0.0476,-0.0489,-0.0491,-0.0524,-0.0526,-0.0428,-0.0396,-0.031,-0.0183,-0.0186,0.0035,0.0041,0.0226,-0.0137,-0.0137,-0.0138,-0.0138,-0.0138,-0.0138,-0.0592,-0.0599,-0.0659,-0.0677,-0.0685,-0.0655,-0.0523,-0.0427,-0.0241,-0.0126,-0.0123,0.0221,-0.0006,0.001,-0.0144,-0.0143,-0.0142,-0.0142,-0.0141,-0.073,-0.0721,-0.0811,-0.0837,-0.0839,-0.0734,-0.0621,-0.0293,-0.0204,-0.0065,0.0219,-0.0053,0.0033,0.0043,0.0063,-0.0069,-0.0069,-0.0069,-0.0069,-0.0813,-0.0823,-0.0911,-0.0952,-0.0943,-0.077,-0.0393,-0.0017,0.0305,0.0432,0.035,0.0471,0.0459,0.0577,0.0575,0.0609,0.0618,0.0619,0.0619,-0.0894,-0.0907,-0.0969,-0.0991,-0.0968,-0.0712,-0.0234,0.0359,0.0704,0.0661,0.0576,0.0546,0.0734,0.0702,0.09,0.0881,0.0943,0,0]}],[{"header":{"parameterUnit":"m.s-1","parameterCategory":2,"la1":30.2992,"la2":30.254,"lo1":-89.0895,"lo2":-89.0443,"dy":0.0025,"dx":0.0025,"nx":19,"ny":19,"refTime":"2026-03-26T03:00:00:Z","depth":"2","parameterNumber":2,"parameterNumberName":"U-component_of_CURRENTS"},"data":[0,0,0,-0.1908,-0.1909,-0.1989,-0.1989,-0.2054,-0.2054,0,0,0,0,0,0,0,0,0,0,0,-0.187,-0.1871,-0.1907,-0.191,-0.1989,-0.1989,-0.2054,-0.2054,0,0,0,0,0,0,0,0,0,0,0,-0.187,-0.1871,-0.1871,-0.191,-0.1989,-0.1989,-0.2054,-0.2002,0,0,0,0,0,0,0,0,0,0,-0.1929,-0.1891,-0.187,-0.1871,-0.191,-0.1989,-0.1989,-0.2,-0.2005,-0.2009,0,-0.202,0,-0.2045,-0.2058,-0.2059,0,0,0,-0.1905,-0.1886,-0.1921,-0.1871,-0.1911,-0.1989,-0.1952,-0.2003,-0.2009,-0.2016,-0.2021,-0.2024,-0.2046,-0.2059,-0.2059,-0.212,-0.212,0,0,-0.1901,-0.1873,-0.1917,-0.1925,-0.193,-0.1949,-0.1954,-0.2007,-0.2004,-0.2021,-0.2026,-0.2047,-0.2059,-0.206,-0.2119,-0.212,0,0,0,-0.1891,-0.1869,-0.1903,-0.1921,-0.1942,-0.1952,-0.1958,-0.2001,-0.2016,-0.2027,-0.2048,-0.2059,-0.206,-0.2119,-0.2119,-0.2133,0,0,0,-0.1888,-0.1865,-0.1901,-0.1884,-0.1942,-0.1976,-0.195,-0.2012,-0.2019,-0.2047,-0.2059,-0.2061,-0.2119,-0.2119,-0.2132,-0.2132,0,0,0,-0.1867,-0.1863,-0.1874,-0.1882,-0.1922,-0.1976,-0.1994,-0.2014,-0.2032,-0.2059,-0.2061,-0.2119,-0.2119,-0.2131,-0.2131,-0.211,0,0,0,-0.1833,-0.1856,-0.1873,-0.1909,-0.1921,-0.1993,-0.1994,-0.204,-0.2065,-0.206,-0.2119,-0.2119,-0.2131,-0.213,-0.211,-0.1937,-0.1924,0,0,-0.1848,-0.1856,-0.1883,-0.1901,-0.1968,-0.1982,-0.2041,-0.2068,-0.2072,-0.2098,-0.21,-0.2132,-0.2131,-0.211,-0.1969,-0.1955,0,0,0,-0.188,-0.1892,-0.1918,-0.1958,-0.2012,-0.205,-0.2083,-0.2091,-0.2115,-0.2091,-0.214,-0.2138,-0.2124,-0.202,-0.201,-0.2122,-0.2122,-0.2122,-0.2122,-0.1838,-0.189,-0.1932,-0.1996,-0.204,-0.2098,-0.2123,-0.2137,-0.2142,-0.215,-0.2155,-0.2157,-0.2047,-0.2036,-0.2165,-0.2165,-0.2165,-0.2165,-0.2165,-0.1849,-0.1868,-0.1936,-0.1995,-0.2051,-0.2096,-0.2155,-0.2162,-0.2174,-0.2176,-0.2162,-0.2047,-0.2025,-0.2166,-0.2166,-0.2166,-0.2166,-0.2165,-0.2165,-0.1806,-0.1821,-0.1873,-0.1949,-0.2014,-0.2086,-0.2121,-0.2166,-0.2174,-0.2178,-0.2036,-0.2034,-0.2146,-0.216,-0.216,-0.216,-0.216,-0.216,-0.216,-0.1724,-0.1782,-0.1805,-0.1899,-0.1935,-0.2005,-0.2096,-0.2104,-0.2061,-0.203,-0.2028,-0.2154,-0.2154,-0.2145,-0.2159,-0.2159,-0.2159,-0.2159,-0.2159,-0.1645,-0.1673,-0.1701,-0.1736,-0.1824,-0.1818,-0.1957,-0.1914,-0.1928,-0.1859,-0.1934,-0.194,-0.1911,-0.1917,-0.1902,-0.1852,-0.1852,-0.1852,-0.1852,-0.1558,-0.1587,-0.1583,-0.1605,-0.1649,-0.1719,-0.1636,-0.1636,-0.1663,-0.1622,-0.1633,-0.1598,-0.1614,-0.1568,-0.1583,-0.1561,-0.1422,-0.1422,-0.1421,-0.148,-0.1502,-0.1451,-0.1499,-0.1546,-0.1558,-0.1416,-0.1306,-0.1268,-0.1411,-0.1624,-0.181,-0.1785,-0.1801,-0.1753,-0.1768,-0.1742,0,0]},{"header":{"parameterUnit":"m.s-1","parameterCategory":2,"la1":30.2992,"la2":30.254,"lo1":-89.0895,"lo2":-89.0443,"dy":0.0025,"dx":0.0025,"nx":19,"ny":19,"refTime":"2026-03-26T03:00:00:Z","depth":"2","parameterNumber":3,"parameterNumberName":"V-component_of_CURRENTS"},"data":[0,0,0,-0.0398,-0.0397,-0.0353,-0.0352,-0.0248,-0.0248,0,0,0,0,0,0,0,0,0,0,0,-0.0411,-0.0411,-0.0398,-0.0397,-0.0353,-0.0352,-0.0249,-0.0248,0,0,0,0,0,0,0,0,0,0,0,-0.0411,-0.0411,-0.0411,-0.0397,-0.0353,-0.0352,-0.0249,-0.0292,0,0,0,0,0,0,0,0,0,0,-0.034,-0.0365,-0.0411,-0.0411,-0.0397,-0.0353,-0.0352,-0.0294,-0.0289,-0.0259,0,-0.0258,0,-0.0254,-0.0241,-0.024,0,0,0,-0.0387,-0.0369,-0.0357,-0.0411,-0.0397,-0.0353,-0.037,-0.0291,-0.0286,-0.0252,-0.0257,-0.0253,-0.0253,-0.024,-0.0239,-0.0153,-0.0152,0,0,-0.0389,-0.0399,-0.0361,-0.0354,-0.0392,-0.0371,-0.0368,-0.0288,-0.0284,-0.0256,-0.0251,-0.0251,-0.0239,-0.0238,-0.0153,-0.0153,0,0,0,-0.0403,-0.0401,-0.0391,-0.0358,-0.0356,-0.037,-0.0367,-0.0287,-0.0285,-0.025,-0.025,-0.0239,-0.0237,-0.0153,-0.0153,-0.0224,0,0,0,-0.0404,-0.041,-0.0393,-0.0397,-0.0358,-0.0328,-0.0368,-0.029,-0.0281,-0.025,-0.0239,-0.0236,-0.0153,-0.0153,-0.0222,-0.0256,0,0,0,-0.0412,-0.041,-0.0408,-0.0398,-0.0384,-0.0329,-0.0322,-0.0288,-0.0281,-0.024,-0.0236,-0.0153,-0.0153,-0.0221,-0.0253,-0.0221,0,0,0,-0.042,-0.0441,-0.0408,-0.0429,-0.0385,-0.0373,-0.0322,-0.0304,-0.0275,-0.0238,-0.0153,-0.0153,-0.022,-0.0251,-0.022,-0.0164,-0.0164,0,0,-0.0458,-0.0446,-0.046,-0.043,-0.0443,-0.0378,-0.0367,-0.0308,-0.0253,-0.0174,-0.0173,-0.0223,-0.0253,-0.0221,-0.0141,-0.0142,0,0,0,-0.048,-0.0491,-0.0488,-0.0485,-0.0457,-0.0419,-0.0357,-0.0313,-0.0246,-0.0236,-0.0194,-0.0211,-0.0188,-0.0152,-0.0152,-0.0151,-0.0151,-0.0151,-0.0151,-0.0539,-0.053,-0.0553,-0.0533,-0.0513,-0.044,-0.0399,-0.0318,-0.0271,-0.0246,-0.0248,-0.0246,-0.0208,-0.0207,-0.0221,-0.0222,-0.0222,-0.0222,-0.0222,-0.0611,-0.0631,-0.0602,-0.0624,-0.0567,-0.0541,-0.0428,-0.0381,-0.0297,-0.0271,-0.0245,-0.0204,-0.0211,-0.0227,-0.0226,-0.0226,-0.0225,-0.0225,-0.0224,-0.0663,-0.0673,-0.0679,-0.0696,-0.0673,-0.0602,-0.0549,-0.046,-0.0359,-0.0344,-0.0247,-0.0245,-0.0284,-0.0318,-0.0318,-0.0318,-0.0318,-0.0318,-0.0318,-0.0717,-0.0722,-0.0764,-0.0768,-0.0775,-0.0741,-0.0618,-0.0538,-0.0389,-0.0309,-0.0307,-0.0277,-0.0274,-0.0286,-0.0319,-0.0318,-0.0318,-0.0318,-0.0318,-0.0789,-0.0787,-0.0854,-0.0878,-0.0887,-0.086,-0.0735,-0.052,-0.0412,-0.0319,-0.0258,-0.0259,-0.0219,-0.0217,-0.0226,-0.0241,-0.0241,-0.0241,-0.0241,-0.0831,-0.0838,-0.0921,-0.0968,-0.0985,-0.0913,-0.077,-0.053,-0.0311,-0.0202,-0.0204,-0.0189,-0.0192,-0.0149,-0.0149,-0.0156,-0.0153,-0.0153,-0.0153,-0.0873,-0.0896,-0.0956,-0.1001,-0.1029,-0.0956,-0.0798,-0.0488,-0.0175,-0.0153,-0.0223,-0.0229,-0.021,-0.0214,-0.0149,-0.0148,-0.0159,0,0]}],[{"header":{"parameterUnit":"m.s-1","parameterCategory":2,"la1":30.2992,"la2":30.254,"lo1":-89.0895,"lo2":-89.0443,"dy":0.0025,"dx":0.0025,"nx":19,"ny":19,"refTime":"2026-03-26T03:00:00:Z","depth":"4","parameterNumber":2,"parameterNumberName":"U-component_of_CURRENTS"},"data":[0,0,0,-0.1413,-0.1416,-0.156,-0.1561,-0.1671,-0.1671,0,0,0,0,0,0,0,0,0,0,0,-0.1365,-0.1366,-0.1413,-0.1416,-0.156,-0.1561,-0.1671,-0.1671,0,0,0,0,0,0,0,0,0,0,0,-0.1364,-0.1365,-0.1367,-0.1417,-0.156,-0.1561,-0.167,-0.1581,0,0,0,0,0,0,0,0,0,0,-0.145,-0.1414,-0.1365,-0.1367,-0.1417,-0.156,-0.1561,-0.1577,-0.1586,-0.1583,0,-0.1612,0,-0.1641,-0.1677,-0.1677,0,0,0,-0.1418,-0.1407,-0.1447,-0.1367,-0.1419,-0.1559,-0.1496,-0.1583,-0.1593,-0.1595,-0.1614,-0.1619,-0.1643,-0.1677,-0.1678,-0.1782,-0.1783,0,0,-0.141,-0.1388,-0.144,-0.1453,-0.1463,-0.1491,-0.15,-0.159,-0.16,-0.1614,-0.1622,-0.1645,-0.1678,-0.1679,-0.1782,-0.1782,0,0,0,-0.1386,-0.1382,-0.1422,-0.1448,-0.1479,-0.1495,-0.1506,-0.1597,-0.1611,-0.1623,-0.1646,-0.1678,-0.1679,-0.1781,-0.1782,-0.1804,0,0,0,-0.1381,-0.1368,-0.1418,-0.1406,-0.1478,-0.1549,-0.151,-0.1605,-0.1616,-0.1646,-0.1678,-0.168,-0.178,-0.1781,-0.1803,-0.1804,0,0,0,-0.1357,-0.1365,-0.1385,-0.1405,-0.1466,-0.1549,-0.1569,-0.1608,-0.163,-0.1677,-0.168,-0.178,-0.1781,-0.1801,-0.1801,-0.1796,0,0,0,-0.1325,-0.1357,-0.1384,-0.1434,-0.1465,-0.1559,-0.1569,-0.1646,-0.169,-0.1679,-0.178,-0.1782,-0.18,-0.18,-0.1795,-0.157,0,0,0,-0.1343,-0.1358,-0.1389,-0.1417,-0.15,-0.1539,-0.1625,-0.1688,-0.1705,-0.1744,-0.1748,-0.1803,-0.1801,-0.1796,-0.1648,0,0,0,0,-0.1381,-0.1402,-0.1433,-0.1491,-0.156,-0.1629,-0.1693,-0.172,-0.1783,-0.1738,-0.1823,-0.1821,-0.1817,-0.1684,-0.1788,-0.1788,-0.1788,-0.1787,-0.1787,-0.1355,-0.1408,-0.1464,-0.1539,-0.1603,-0.1698,-0.1752,-0.18,-0.1813,-0.1847,-0.1854,-0.1886,-0.1749,-0.1876,-0.1876,-0.1876,-0.1876,-0.1876,-0.1876,-0.1368,-0.1394,-0.148,-0.1556,-0.1641,-0.172,-0.1814,-0.1842,-0.1893,-0.1897,-0.1892,-0.1736,-0.1879,-0.1878,-0.1878,-0.1878,-0.1878,-0.1877,-0.1877,-0.1328,-0.1347,-0.1419,-0.1526,-0.1631,-0.1735,-0.1797,-0.1873,-0.1908,-0.1923,-0.1764,-0.1896,-0.1875,-0.1917,-0.1917,-0.1917,-0.1917,-0.1917,-0.1917,-0.1242,-0.1315,-0.1367,-0.1493,-0.156,-0.1662,-0.1791,-0.181,-0.1866,-0.1761,-0.1924,-0.1899,-0.1898,-0.1877,-0.1917,-0.1917,-0.1917,-0.1917,-0.1917,-0.1168,-0.1212,-0.1271,-0.1337,-0.1473,-0.1527,-0.169,-0.167,-0.1663,-0.1599,-0.1666,-0.1679,-0.1642,-0.1647,-0.1616,-0.158,-0.1577,-0.1574,0,-0.1093,-0.1126,-0.1176,-0.1234,-0.1289,-0.1432,-0.1386,-0.1436,-0.1469,-0.1418,-0.1651,-0.1728,-0.1735,-0.1697,-0.1697,-0.166,0,0,0,-0.1033,-0.1062,-0.1056,-0.1135,-0.1188,-0.1237,-0.1359,-0.1306,-0.1486,-0.1404,-0.1504,-0.1523,-0.1774,-0.1917,-0.1891,-0.1889,-0.1854,0,0]},{"header":{"parameterUnit":"m.s-1","parameterCategory":2,"la1":30.2992,"la2":30.254,"lo1":-89.0895,"lo2":-89.0443,"dy":0.0025,"dx":0.0025,"nx":19,"ny":19,"refTime":"2026-03-26T03:00:00:Z","depth":"4","parameterNumber":3,"parameterNumberName":"V-component_of_CURRENTS"},"data":[0,0,0,-0.0322,-0.0322,-0.0311,-0.0311,-0.0251,-0.025,0,0,0,0,0,0,0,0,0,0,0,-0.0324,-0.0324,-0.0322,-0.0322,-0.0311,-0.0311,-0.0251,-0.025,0,0,0,0,0,0,0,0,0,0,0,-0.0324,-0.0324,-0.0325,-0.0322,-0.0311,-0.0311,-0.0251,-0.0269,0,0,0,0,0,0,0,0,0,0,-0.0284,-0.0299,-0.0324,-0.0325,-0.0322,-0.0311,-0.0311,-0.027,-0.0268,-0.0245,0,-0.0249,0,-0.0251,-0.0246,-0.0245,0,0,0,-0.0314,-0.0301,-0.0297,-0.0325,-0.0322,-0.0311,-0.0314,-0.0269,-0.0266,-0.0241,-0.0248,-0.0246,-0.025,-0.0245,-0.0245,-0.0173,-0.0173,0,0,-0.0315,-0.032,-0.0299,-0.0295,-0.0325,-0.0314,-0.0314,-0.0268,-0.0267,-0.0248,-0.0245,-0.0249,-0.0245,-0.0244,-0.0174,-0.0173,0,0,0,-0.0322,-0.0321,-0.0319,-0.0297,-0.0301,-0.0314,-0.0313,-0.0269,-0.0268,-0.0244,-0.0248,-0.0244,-0.0244,-0.0174,-0.0173,-0.0225,0,0,0,-0.0322,-0.0326,-0.0319,-0.0322,-0.0302,-0.0292,-0.0316,-0.0271,-0.0266,-0.0248,-0.0244,-0.0243,-0.0174,-0.0174,-0.0224,-0.0247,0,0,0,-0.0324,-0.0326,-0.0326,-0.0322,-0.0321,-0.0293,-0.029,-0.027,-0.0269,-0.0245,-0.0243,-0.0174,-0.0174,-0.0223,-0.0246,-0.0225,0,0,0,-0.0327,-0.0345,-0.0327,-0.0347,-0.0321,-0.0321,-0.029,-0.0286,-0.0272,-0.0244,-0.0174,-0.0173,-0.0223,-0.0245,-0.0225,-0.0233,0,0,0,-0.0354,-0.0348,-0.0361,-0.0345,-0.0361,-0.0322,-0.0317,-0.0286,-0.0247,-0.0185,-0.0184,-0.0224,-0.0246,-0.0225,-0.0191,0,0,0,0,-0.0373,-0.0383,-0.0384,-0.0389,-0.0375,-0.0352,-0.0317,-0.0282,-0.0233,-0.0235,-0.0195,-0.0206,-0.0193,-0.0194,-0.017,-0.017,-0.017,-0.017,-0.017,-0.0411,-0.0409,-0.0431,-0.0424,-0.0415,-0.0368,-0.0339,-0.0278,-0.0246,-0.0222,-0.0227,-0.0219,-0.0221,-0.0201,-0.0201,-0.0201,-0.0202,-0.0202,-0.0202,-0.046,-0.0476,-0.0465,-0.049,-0.0455,-0.0441,-0.0354,-0.0319,-0.0251,-0.023,-0.0214,-0.0222,-0.0206,-0.0205,-0.0205,-0.0204,-0.0204,-0.0204,-0.0203,-0.049,-0.0498,-0.0515,-0.0542,-0.0536,-0.049,-0.045,-0.0378,-0.0297,-0.0285,-0.0251,-0.0235,-0.0253,-0.0269,-0.0269,-0.0269,-0.0269,-0.0269,-0.0269,-0.0516,-0.053,-0.0575,-0.0595,-0.0615,-0.0597,-0.0505,-0.0441,-0.0349,-0.0298,-0.0292,-0.024,-0.0238,-0.0254,-0.0269,-0.0269,-0.0269,-0.0269,-0.0269,-0.0556,-0.0566,-0.0633,-0.0668,-0.0701,-0.0678,-0.06,-0.0445,-0.0377,-0.0303,-0.0286,-0.0285,-0.026,-0.0256,-0.0273,-0.0294,-0.0294,-0.0294,0,-0.0579,-0.0589,-0.0678,-0.0735,-0.0758,-0.0718,-0.0617,-0.0515,-0.0387,-0.0398,-0.0389,-0.0378,-0.0374,-0.0355,-0.0352,-0.0376,0,0,0,-0.0604,-0.063,-0.0692,-0.0751,-0.0781,-0.0663,-0.0584,-0.0527,-0.0421,-0.0318,-0.0298,-0.0297,-0.0296,-0.027,-0.0228,-0.0226,-0.0249,0,0]}]]